COSMOS 886 DEB, 13507

Orbit data source: Space-Track

COSMOS 886 DEB, 13507 is space debris in LEO originally from a launch on Mon, 27 Dec 1976 UTC launched from the Tyuratam Missile And Space Complex (TTMTR). Debris objects in space refer to the collection of defunct objects orbiting the Earth. Examples of debris include non-operational satellites, rocket bodies, and fragments generated from explosions, collisions, or faulty payload assembly.

Loading next visibility...
Identifier
13507, 1976-126BK
Orbit
LEO
Country
Flag of CISCIS
Related business
Manufacturer
Unknown
Mission
Spacecraft
Bus & Motor
Unknown
Mass
Unknown
Launch date (UTC)
1976-12-27 (49 years ago)
Launch vehicle
Unknown
Launch site
Tyuratam Missile And Space Complex (TTMTR)
Object type
Payload
Rocket body
Debris
Shape & HBR
Unknown shape, 0.1 m
Radar Cross Section
Medium (>0.1 m² and <1 m²)

Expand to show TLE details & history
Last TLE update: 4 days ago

TLE from 4 days ago
0 COSMOS 886 DEB
1 13507U 76126BK  26172.41807220 -.00000013  00000-0  16860-3 0  9999
2 13507  65.7545 161.8912 0885989 260.7842 263.4363 11.92294575961293
Epoch: 2026-06-21T10:02Z
TLE epoch observation values (Epoch: 2026-06-21T10:02:01.438Z)
Latitude
23.31317°
Longitude
-89.37166°
Altitude
1,860.744 km
Speed
6.897 km/s
True Right ascension
22h 03m 00s
True Declination
23° 12' 19"
Sunlit
Object was in daylight at epoch
Visualization orbit readout
Latitude
Unknown
Longitude
Unknown
Altitude
Unknown
Speed
Unknown
Apparent Right ascension
Unknown
Apparent Declination
Unknown
Sunlit
N/A
Visualization observer readout
Local Sidereal Time
11:20:27
Azimuth
Unknown
Elevation
Unknown
Doppler factor
Unknown
Orbital elements
Apogee altitude
2,431.161 km
Perigee altitude
997.218 km
Semi-major axis
8,092.327 km
Eccentricity
0.0886
Inclination
65.7545°
RAAN
161.8912°
Arg. of periapsis
260.7842°
True anomaly
253.52587°
Mean anomaly
263.4363°
Eccentric anomaly
258.46253°
Mean motion
2.98149 °/min
Orbital period
120.75 mins
BSTAR
0.0001686
Loading maneuver chart data...
Computing Atmospheric mass density...
Loading historical data...
Loading historical data...
Loading historical data...
Loading historical data...
Loading historical data...
Loading historical data...
Loading historical data...

Documentation

Showing up to 5 results
|